Location: Unspecified
(47.7670°N, 8.8522°E)
Time: 11:45:19
(UTC+01:00)

ISS - Pass Details

Date: 01 February 2019
Orbit: 403 x 411 km, 51.6° (Epoch: 22 February)

Event Time Altitude Azimuth Distance (km) Brightness Sun altitude
Rises 18:53:51 0° 284° (WNW) 2,335 1.3 -15.1°
Reaches altitude 10° 18:56:01 10° 292° (WNW) 1,475 -0.1 -15.5°
Maximum altitude 18:59:10 41° 4° (N) 610 -3.1 -16.0°
Enters shadow 18:59:59 34° 42° (NE) 700 -3.1 -16.1°
